Temperature
20 18 17 17 17 16 16 16 16 16 16 16 16 15 15 15 15 15 15 15 15 14 14 14 14 14 14 14 14 14 14 14 15 15 15 15 15 15 15 14 13 13 12
21 19 17 17 17 17 16 16 16 16 16 16 15 15 15 15 15 15 15 15 14 14 14 14 14 14 13 13 14 14 14 14 14 14 14 15 15 14 14 14 13 12 12
21 19 17 17 17 17 17 16 16 16 15 15 15 15 15 15 15 16 15 14 14 14 14 14 14 13 13 13 14 14 14 14 14 14 14 14 14 14 14 13 13 12 12
20 19 18 18 18 17 17 17 16 16 15 15 15 15 15 15 16 16 15 14 14 14 14 14 13 13 14 14 14 14 14 14 14 14 13 13 14 13 13 13 13 13 12
20 20 19 18 18 18 18 18 17 16 15 15 15 15 15 15 16 16 15 15 14 14 14 14 14 14 14 14 14 14 14 14 13 13 13 13 13 13 13 13 13 13 13
20 19 19 19 18 18 18 18 18 17 16 15 15 15 15 16 16 16 16 15 15 15 14 14 14 14 14 14 14 14 14 13 13 13 13 12 12 12 12 12 12 13 13
19 19 19 18 18 18 19 19 18 17 16 16 15 15 15 16 16 16 16 15 15 15 15 14 14 14 14 14 14 14 13 13 13 12 12 12 12 12 12 12 12 12 12
19 18 18 18 18 18 19 19 18 17 16 16 16 15 15 15 16 15 15 15 15 15 15 14 14 14 14 14 13 13 13 13 12 12 12 12 12 12 12 12 12 12 12
18 18 18 18 18 18 18 19 18 18 16 16 16 15 15 15 15 15 15 15 15 15 14 14 14 14 14 13 13 13 13 13 12 12 12 12 12 12 12 12 12 12 12
18 18 18 18 18 18 18 18 18 18 17 16 16 15 15 15 14 15 15 15 15 14 14 13 13 13 13 13 13 13 13 12 12 12 12 11 11 11 11 11 11 11 11
17 17 17 18 18 18 18 18 18 18 17 16 16 15 15 15 14 14 14 14 14 14 13 13 13 13 13 13 13 13 13 12 12 12 12 11 11 11 10 10 10 10 10
18 17 17 18 18 18 18 18 18 18 17 17 16 16 15 15 14 14 14 14 14 13 13 13 13 13 13 13 13 13 13 12 12 12 11 10 10 10 10 9 9 9 9
18 18 18 17 17 17 18 18 18 18 18 17 17 16 15 15 14 14 13 13 13 13 13 13 13 13 13 13 13 13 13 12 12 11 11 10 10 9 9 9 9 9 9
18 18 18 17 17 17 17 17 17 18 18 18 17 16 16 15 14 14 14 13 13 13 13 13 12 12 12 13 13 13 12 12 12 11 10 10 9 9 9 9 9 9 9
18 18 18 17 17 17 17 17 16 17 17 17 17 17 16 15 15 14 14 13 13 13 13 13 12 12 12 12 12 12 12 12 11 10 10 9 9 9 8 8 8 8 8
18 18 18 17 17 17 17 17 17 16 16 17 17 17 16 16 15 14 14 13 13 13 12 12 12 12 12 12 12 12 12 12 11 10 10 9 9 8 8 8 8 8 8
18 18 18 18 17 17 17 17 17 16 16 16 16 16 16 15 15 14 14 13 13 13 12 12 12 12 12 12 12 12 12 11 10 10 9 9 8 8 8 8 8 8 8
18 18 18 17 17 17 17 17 17 17 17 16 16 16 15 15 15 14 14 13 13 12 12 12 11 11 11 12 12 12 11 11 10 9 9 8 8 8 7 7 7 7 7
18 18 18 18 18 18 18 17 17 17 17 17 16 16 15 15 14 14 13 13 12 12 12 11 11 11 11 11 11 11 11 10 10 9 9 8 8 7 7 7 7 7 7
17 18 18 18 18 18 18 18 17 17 17 16 16 16 15 15 15 14 13 13 12 12 11 11 11 11 11 11 11 11 11 10 10 9 8 8 7 7 7 7 7 7 7
17 17 17 17 17 18 18 17 17 17 17 17 17 16 16 15 15 14 14 13 12 12 12 11 11 11 11 11 11 10 10 10 9 9 8 8 8 7 7 7 7 7 6
17 17 17 17 17 17 17 18 18 18 18 17 17 17 16 16 15 15 14 14 13 12 12 11 11 11 11 11 11 11 10 10 10 9 9 8 8 7 7 6 6 6 6
16 17 17 17 17 17 17 17 16 16 16 16 16 16 16 16 16 15 15 14 14 13 12 12 11 11 11 11 11 11 11 11 10 9 9 8 8 7 7 6 6 6 5
16 16 16 16 16 16 16 16 16 16 15 16 16 16 16 16 16 16 15 15 14 13 13 12 12 11 11 11 11 11 11 11 10 10 9 9 8 7 7 6 6 5 5
15 15 15 16 16 16 16 16 16 16 16 16 16 16 16 16 16 16 15 15 14 14 13 13 12 11 11 11 11 11 10 10 10 10 9 9 8 7 6 6 5 5 4
14 14 14 15 15 15 15 15 16 16 16 16 15 15 15 15 15 15 15 15 15 14 14 13 12 12 11 11 11 11 11 10 10 10 9 9 8 7 6 5 5 4 4
Wind_Speed
6 10 18 17 17 16 16 16 17 18 18 18 17 16 15 13 12 10 9 8 7 8 10 13 14 15 15 15 14 14 14 13 13 12 12 11 11 10 10 9 8 7 8
9 14 19 18 17 16 16 16 16 17 17 17 16 15 13 12 11 10 9 9 9 10 12 14 14 14 14 14 13 13 13 12 11 10 9 9 8 9 9 8 7 6 7
12 15 19 18 18 17 16 16 16 17 17 16 15 14 13 11 11 10 10 10 10 12 13 14 14 14 13 12 12 12 11 10 9 7 7 6 6 7 7 6 5 6 6
14 15 17 19 18 17 16 15 15 16 17 16 15 14 13 12 12 11 11 10 11 13 13 13 12 12 11 11 11 10 9 8 7 6 5 4 4 5 6 5 4 4 4
12 14 17 20 18 17 16 15 15 16 17 17 16 15 14 13 13 12 12 11 11 11 11 11 10 10 10 10 9 9 8 8 7 6 4 3 4 4 5 4 3 3 2
9 14 18 20 18 17 16 15 16 16 17 17 16 15 14 13 13 12 12 11 10 9 9 9 9 9 9 8 8 8 7 7 7 6 4 3 4 4 6 7 6 5 6
10 12 17 19 18 16 15 15 16 17 17 17 16 15 14 13 12 12 11 10 9 9 8 8 8 8 8 8 8 7 7 7 8 8 5 3 4 6 10 11 12 14 15
11 11 16 18 17 16 15 15 15 16 17 17 16 15 14 13 12 12 11 9 8 8 8 8 7 7 7 8 7 6 7 8 9 8 5 3 4 9 12 15 18 20 21
10 9 11 15 16 15 15 15 15 16 17 17 16 15 13 12 11 11 10 9 8 7 7 7 7 7 8 8 8 8 10 10 10 7 5 5 8 13 16 18 19 20 19
9 7 8 12 14 14 14 14 15 15 15 16 15 14 12 11 10 11 10 8 7 6 6 6 6 8 9 9 10 11 11 11 10 8 7 8 12 15 16 17 17 17 16
11 9 7 8 11 13 13 13 14 14 14 15 13 12 10 8 8 9 10 9 7 6 5 6 8 10 11 11 10 11 11 10 10 9 9 13 14 15 15 14 14 14 14
15 13 10 8 8 11 12 12 12 12 12 12 11 11 9 7 7 9 11 9 7 6 5 7 9 9 10 10 9 10 10 10 10 9 11 14 14 13 13 13 12 12 12
14 14 13 11 10 9 8 10 10 11 11 12 12 12 10 7 6 8 9 8 6 6 7 9 9 9 8 8 9 9 10 10 10 10 11 14 13 12 11 11 11 11 11
12 14 13 12 10 10 9 8 9 9 9 10 13 14 11 7 6 7 8 8 8 8 8 7 8 8 8 8 9 9 9 10 11 11 12 13 12 11 10 10 10 10 10
12 13 13 13 13 11 9 7 8 9 10 12 13 14 14 9 6 7 7 8 9 9 9 8 8 8 7 7 7 8 8 9 11 12 12 13 13 11 10 9 9 9 9
13 13 12 14 13 12 12 9 7 10 11 12 13 14 16 13 10 8 7 7 8 10 10 9 8 7 6 6 6 7 7 8 10 11 12 12 12 11 9 9 9 9 9
11 12 14 15 14 15 14 12 9 11 12 11 13 15 16 15 13 10 7 7 9 12 12 10 9 7 5 5 4 5 6 7 8 9 10 11 10 10 9 9 9 9 9
9 11 14 14 15 17 15 13 10 12 12 11 14 15 17 17 16 12 8 7 12 13 11 6 5 5 4 4 4 3 4 5 6 7 8 8 8 7 7 7 7 7 7
10 11 12 14 16 18 18 14 12 10 11 12 14 14 16 18 18 14 9 10 14 10 7 6 4 4 4 4 4 3 2 3 4 5 5 5 5 5 4 5 5 5 5
9 10 10 11 14 15 14 12 10 10 10 10 11 14 16 18 19 16 10 12 13 8 7 6 5 3 4 5 5 4 2 1 2 3 3 3 3 3 3 3 3 3 4
8 10 11 11 12 11 10 13 13 14 13 12 12 15 17 18 19 15 9 10 11 11 11 10 6 5 3 4 4 3 2 2 1 2 3 3 3 4 4 3 2 2 3
9 9 10 11 11 11 12 12 10 11 10 12 10 11 17 17 18 16 13 13 12 10 11 10 7 5 3 4 4 4 2 1 2 0 1 3 3 5 5 4 3 2 3
9 10 9 11 11 11 12 8 5 5 4 7 9 11 12 16 18 16 15 13 13 13 13 13 11 9 6 4 3 4 5 6 3 1 1 1 3 3 4 4 3 3 3
9 8 8 9 9 10 10 9 11 12 12 12 12 12 12 15 17 18 16 15 15 13 14 14 12 7 8 5 3 1 2 4 4 3 2 1 2 3 3 2 3 4 6
7 6 5 6 7 8 8 11 13 14 13 9 8 11 12 12 13 15 16 14 15 13 14 14 13 9 7 7 6 4 3 2 2 4 3 3 2 2 2 2 4 5 6
8 7 6 6 7 6 7 9 11 14 13 10 11 12 11 9 10 13 13 13 14 12 14 13 14 14 9 8 6 5 5 4 4 4 3 3 3 2 2 2 4 6 6
Wind_Direction
172 164 159 158 154 150 147 145 142 138 134 131 128 125 122 118 114 111 108 105 112 124 134 132 126 116 107 99 95 92 90 87 84 78 70 67 75 84 86 84 74 64 76
150 159 159 158 155 152 150 147 144 140 137 134 131 126 121 117 114 114 113 107 104 107 121 123 114 108 101 96 95 95 93 88 83 77 67 56 61 82 87 85 80 77 76
143 157 157 157 155 153 151 149 147 145 142 139 134 129 125 121 120 120 118 110 98 95 102 106 102 98 94 94 96 95 90 83 78 80 75 57 51 76 83 82 74 74 73
146 154 155 156 155 154 153 152 153 152 148 144 140 135 131 127 124 124 123 115 100 92 91 93 94 93 93 95 97 93 84 74 72 86 86 55 28 67 82 83 76 70 63
144 151 156 156 156 156 157 158 159 158 154 149 145 141 136 131 128 127 124 117 108 101 99 99 98 97 97 98 97 90 78 71 77 91 94 53 12 47 73 75 76 65 49
140 149 158 156 158 159 160 163 166 165 160 155 151 148 144 138 132 128 124 120 115 114 112 110 108 105 101 97 92 82 75 80 90 101 97 48 359 26 63 62 61 56 53
141 148 159 158 160 162 163 166 170 171 166 160 158 156 152 146 138 134 132 129 126 124 121 117 113 106 96 88 82 78 81 93 106 110 101 39 0 56 68 65 64 66 66
148 150 161 162 162 164 166 170 174 175 171 167 166 164 161 156 149 144 142 139 134 130 126 121 114 100 86 78 74 77 94 105 107 105 91 42 40 73 74 75 74 69 65
149 151 161 163 164 167 170 172 177 180 176 173 173 173 171 166 160 157 153 150 144 138 132 126 113 96 84 78 78 87 99 102 101 91 74 61 76 85 83 79 73 68 64
156 160 164 163 165 168 173 177 180 182 180 178 178 178 175 173 171 170 165 162 157 149 138 128 115 97 85 86 91 96 97 96 92 85 81 86 92 89 84 77 73 69 64
175 177 173 167 168 169 173 180 182 184 184 181 181 177 171 173 180 178 172 173 168 160 146 131 115 99 89 88 93 98 97 94 93 89 93 99 95 90 83 77 73 69 65
188 189 186 179 174 172 178 179 180 181 184 181 176 172 170 175 179 174 175 177 173 160 139 124 110 100 97 94 94 99 98 97 93 89 102 102 97 92 86 80 75 71 66
191 193 194 189 184 181 180 176 179 180 180 178 177 175 171 168 165 160 161 166 155 131 111 107 99 101 103 105 107 105 103 98 93 92 104 105 102 97 91 85 79 74 68
197 200 199 196 192 191 187 184 184 183 182 181 182 179 170 162 160 157 157 155 146 138 127 119 112 109 105 109 117 115 108 103 98 95 101 105 106 103 98 91 82 74 67
210 207 205 202 201 197 193 191 192 194 194 191 186 184 178 171 171 169 164 160 155 151 145 136 128 120 111 108 117 122 115 110 105 101 101 105 107 107 102 94 84 75 67
214 215 210 209 207 203 203 201 198 200 199 195 193 189 185 181 178 176 171 166 163 162 156 148 140 130 119 117 113 121 122 118 114 109 106 107 109 110 107 98 87 76 64
211 213 213 213 210 209 209 206 204 202 200 202 200 194 190 187 184 181 179 175 171 162 150 138 128 120 114 110 107 119 127 128 125 120 118 115 113 112 113 106 93 79 64
215 212 214 213 212 212 213 209 208 203 202 205 201 198 195 192 188 183 182 180 169 160 151 142 134 116 117 122 122 122 131 140 138 136 133 131 126 121 119 114 100 80 61
227 221 216 212 210 211 213 212 209 204 204 205 201 201 198 194 189 184 184 177 167 160 157 152 140 133 140 138 130 113 124 149 159 157 156 154 148 142 131 120 104 80 52
233 230 228 220 217 212 210 210 210 208 208 205 205 205 196 195 189 184 180 173 167 162 161 155 139 115 127 137 117 90 69 136 169 183 190 188 190 181 164 136 111 66 33
238 228 227 224 222 212 204 207 210 214 213 210 210 206 198 194 188 184 178 173 174 176 174 160 137 129 128 141 114 89 37 37 176 207 206 201 206 198 181 160 126 60 11
237 229 225 225 225 216 210 208 208 210 213 212 208 203 199 192 188 188 180 180 181 174 167 167 150 140 141 168 145 133 154 301 271 217 217 200 192 174 167 156 126 60 15
252 239 229 222 222 220 213 205 192 188 193 200 204 206 199 192 189 190 186 180 181 179 181 180 170 156 155 180 192 155 158 203 210 267 291 188 175 161 159 148 120 86 65
270 258 241 231 227 224 212 202 198 206 214 212 210 209 199 193 191 191 186 183 183 185 184 185 178 166 149 157 171 154 130 143 153 185 262 247 192 180 173 152 132 116 97
316 306 282 259 244 233 218 211 208 215 219 212 203 202 200 196 194 192 188 187 187 188 186 182 178 174 164 160 159 152 131 87 113 148 192 222 236 216 205 191 172 145 115
350 344 331 307 279 259 237 223 217 219 217 206 201 204 202 197 196 195 190 190 189 188 187 185 182 180 173 160 159 156 154 156 173 160 162 182 209 243 249 222 183 166 143
Height
1514 1515 1518 1521 1524 1526 1529 1531 1533 1534 1536 1537 1538 1539 1540 1540 1540 1540 1539 1540 1540 1541 1541 1543 1544 1546 1546 1547 1547 1548 1548 1549 1549 1549 1549 1549 1549 1549 1549 1549 1549 1549 1550
1513 1515 1519 1521 1524 1527 1529 1532 1533 1535 1536 1537 1538 1539 1540 1540 1539 1539 1539 1540 1541 1542 1543 1544 1546 1547 1547 1548 1548 1549 1549 1549 1550 1550 1550 1550 1550 1550 1550 1550 1550 1550 1550
1513 1515 1519 1522 1525 1527 1530 1532 1534 1535 1536 1537 1538 1539 1539 1539 1539 1539 1539 1541 1542 1544 1545 1546 1547 1548 1549 1549 1549 1550 1550 1551 1551 1551 1552 1552 1551 1551 1551 1551 1551 1551 1551
1514 1516 1519 1522 1525 1528 1530 1532 1534 1535 1536 1537 1538 1539 1539 1539 1539 1540 1540 1542 1543 1545 1546 1547 1548 1549 1550 1550 1551 1551 1552 1552 1552 1553 1553 1553 1553 1553 1553 1553 1553 1553 1553
1514 1517 1520 1523 1525 1528 1530 1532 1534 1535 1536 1537 1538 1539 1540 1540 1540 1541 1542 1543 1544 1546 1547 1549 1550 1551 1551 1552 1552 1553 1553 1553 1554 1554 1554 1554 1554 1554 1554 1554 1554 1554 1554
1515 1518 1521 1523 1526 1528 1530 1532 1534 1535 1537 1538 1539 1540 1541 1541 1542 1542 1543 1544 1545 1547 1548 1550 1551 1552 1552 1553 1553 1554 1554 1555 1555 1555 1555 1555 1555 1555 1555 1555 1555 1555 1555
1515 1518 1521 1524 1527 1529 1531 1533 1534 1535 1537 1538 1540 1541 1542 1543 1543 1544 1545 1546 1547 1548 1549 1551 1552 1552 1553 1553 1554 1554 1555 1556 1556 1556 1556 1556 1556 1556 1556 1556 1556 1556 1555
1516 1518 1521 1524 1527 1529 1531 1533 1534 1536 1537 1539 1540 1542 1543 1544 1545 1546 1547 1547 1548 1549 1550 1552 1552 1553 1554 1554 1555 1555 1556 1556 1556 1557 1556 1557 1557 1557 1556 1556 1556 1556 1555
1516 1519 1521 1524 1527 1529 1531 1533 1534 1536 1537 1539 1541 1542 1544 1545 1546 1547 1548 1549 1550 1551 1552 1553 1553 1554 1554 1555 1555 1556 1556 1557 1557 1557 1557 1557 1557 1557 1556 1556 1555 1555 1555
1516 1519 1521 1524 1527 1529 1531 1533 1534 1536 1537 1539 1541 1543 1544 1546 1547 1548 1549 1550 1551 1552 1553 1553 1554 1554 1555 1555 1556 1556 1556 1556 1556 1556 1557 1557 1557 1556 1556 1555 1555 1554 1554
1516 1518 1520 1523 1526 1528 1530 1532 1534 1535 1537 1538 1540 1542 1544 1545 1547 1548 1549 1550 1551 1552 1553 1554 1554 1555 1555 1555 1556 1556 1556 1556 1556 1556 1556 1556 1556 1555 1555 1554 1554 1553 1553
1513 1516 1519 1522 1524 1527 1529 1531 1533 1534 1536 1537 1539 1541 1543 1545 1546 1548 1549 1550 1551 1552 1553 1554 1554 1555 1555 1555 1555 1555 1555 1555 1555 1555 1555 1555 1554 1554 1553 1553 1552 1552 1551
1513 1515 1517 1520 1523 1525 1527 1529 1531 1533 1534 1536 1538 1539 1541 1543 1545 1547 1548 1549 1550 1551 1552 1553 1554 1554 1555 1555 1555 1555 1554 1554 1554 1553 1553 1553 1553 1552 1552 1551 1551 1551 1550
1512 1514 1517 1519 1521 1523 1525 1527 1529 1530 1532 1534 1536 1537 1539 1541 1543 1545 1547 1548 1549 1550 1552 1552 1553 1554 1554 1554 1554 1554 1553 1553 1552 1552 1552 1552 1552 1551 1551 1550 1550 1550 1550
1511 1513 1515 1517 1519 1520 1522 1524 1525 1527 1530 1532 1533 1535 1536 1538 1540 1542 1544 1546 1547 1549 1550 1551 1552 1552 1553 1553 1552 1552 1551 1551 1551 1551 1551 1550 1550 1550 1550 1549 1549 1549 1549
1509 1511 1513 1515 1516 1518 1519 1521 1522 1524 1527 1529 1530 1532 1533 1535 1537 1539 1541 1543 1545 1546 1547 1549 1550 1550 1551 1551 1551 1550 1550 1549 1549 1549 1549 1549 1549 1549 1548 1548 1548 1548 1548
1507 1509 1510 1512 1513 1515 1516 1518 1519 1521 1523 1525 1526 1528 1530 1531 1533 1536 1538 1540 1542 1543 1545 1546 1547 1548 1548 1548 1548 1548 1548 1548 1548 1548 1548 1548 1548 1547 1547 1547 1547 1546 1546
1503 1505 1506 1508 1509 1510 1512 1513 1515 1517 1519 1521 1523 1524 1526 1528 1529 1531 1533 1536 1538 1540 1541 1543 1544 1545 1545 1546 1546 1546 1546 1546 1546 1546 1546 1546 1546 1546 1546 1545 1545 1545 1544
1499 1500 1501 1503 1504 1505 1507 1508 1510 1512 1514 1516 1518 1520 1521 1523 1525 1527 1529 1532 1534 1536 1538 1539 1541 1542 1542 1543 1543 1543 1543 1543 1544 1544 1544 1544 1544 1544 1544 1543 1543 1542 1542
1492 1493 1495 1497 1498 1500 1501 1502 1504 1506 1508 1510 1513 1515 1516 1518 1520 1522 1525 1527 1529 1531 1533 1535 1537 1538 1539 1540 1540 1541 1541 1541 1541 1541 1541 1542 1542 1542 1542 1541 1541 1540 1539
1485 1486 1487 1489 1491 1492 1493 1495 1496 1498 1500 1503 1506 1508 1511 1512 1515 1517 1519 1522 1524 1526 1528 1531 1533 1534 1535 1536 1537 1538 1538 1538 1538 1539 1539 1539 1539 1539 1539 1539 1538 1537 1536
1477 1479 1480 1481 1483 1485 1486 1487 1489 1491 1493 1496 1499 1501 1504 1506 1509 1511 1514 1516 1518 1520 1523 1525 1527 1529 1531 1532 1533 1534 1534 1536 1534 1535 1535 1536 1536 1536 1536 1535 1534 1533 1532
1469 1471 1472 1474 1476 1478 1479 1481 1482 1483 1485 1487 1490 1493 1496 1499 1501 1505 1507 1510 1512 1514 1516 1518 1521 1523 1525 1527 1529 1530 1530 1529 1530 1531 1531 1532 1532 1532 1532 1531 1530 1529 1528
1463 1463 1465 1467 1469 1471 1473 1473 1474 1475 1476 1478 1482 1485 1488 1491 1494 1497 1500 1503 1505 1508 1510 1512 1515 1517 1520 1521 1523 1524 1526 1526 1527 1527 1528 1528 1528 1528 1528 1527 1526 1525 1524
1460 1459 1460 1461 1462 1464 1465 1466 1467 1468 1470 1472 1475 1477 1480 1483 1486 1489 1492 1495 1498 1500 1503 1505 1508 1511 1513 1515 1517 1518 1520 1521 1522 1523 1523 1523 1523 1523 1523 1522 1522 1521 1520
1458 1457 1457 1457 1458 1458 1459 1460 1460 1461 1463 1465 1466 1469 1471 1473 1476 1480 1484 1487 1490 1493 1495 1498 1501 1504 1506 1509 1511 1513 1514 1516 1516 1518 1518 1518 1519 1519 1518 1518 1517 1516 1515